Rothera Research Station


Codes: EGAR/
Name: Rothera Research Station
City:
Country: Antarctica
Elevation: 9 ft.
Website:
Wikipedia:

Photos at Rothera Research Station


   Photos courtesy of SpottingLog. You can add your own sightings and photos by signing up for a free trial today.



No photos found.

Weather at Rothera Research Station


Time (UTC)DescriptionTempratureWindCloud coverageVisibilityPressureHumidity
21-Feb-2024 03:00Light Snow-2°C9 mph, N99%10000m985hPa90%
21-Feb-2024 06:00Light Snow-3°C7 mph, N98%10000m985hPa89%
21-Feb-2024 09:00Light Snow-3°C7 mph, NW96%10000m986hPa89%
21-Feb-2024 12:00Overcast Clouds-2°C7 mph, N85%10000m986hPa85%
21-Feb-2024 15:00Scattered Clouds0°C7 mph, NE43%10000m986hPa82%
21-Feb-2024 18:00Scattered Clouds1°C7 mph, NE47%10000m985hPa83%
21-Feb-2024 21:00Broken Clouds1°C4 mph, NE60%10000m985hPa85%
22-Feb-2024 00:00Broken Clouds-4°C2 mph, NW76%10000m985hPa90%
22-Feb-2024 03:00Overcast Clouds-6°C4 mph, NW97%10000m985hPa87%
22-Feb-2024 06:00Overcast Clouds-6°C4 mph, W97%10000m985hPa86%
22-Feb-2024 09:00Overcast Clouds-7°C4 mph, NW97%10000m987hPa84%
22-Feb-2024 12:00Broken Clouds-4°C2 mph, NW74%10000m988hPa82%
22-Feb-2024 15:00Scattered Clouds-0°C0 mph, E25%10000m990hPa77%
22-Feb-2024 18:00Few Clouds0°C2 mph, S20%10000m992hPa83%
22-Feb-2024 21:00Clear Sky-1°C4 mph, S8%10000m994hPa88%
23-Feb-2024 00:00Clear Sky-7°C2 mph, W7%10000m995hPa91%
23-Feb-2024 03:00Clear Sky-8°C4 mph, NW10%10000m997hPa85%
23-Feb-2024 06:00Few Clouds-9°C4 mph, NW12%10000m998hPa84%
23-Feb-2024 09:00Few Clouds-10°C4 mph, NW15%10000m999hPa83%
23-Feb-2024 12:00Few Clouds-6°C4 mph, N23%10000m999hPa82%
23-Feb-2024 15:00Overcast Clouds-2°C4 mph, N92%10000m999hPa73%
23-Feb-2024 18:00Overcast Clouds0°C4 mph, NE96%10000m998hPa74%
23-Feb-2024 21:00Overcast Clouds1°C7 mph, N100%10000m997hPa82%
24-Feb-2024 00:00Light Snow-1°C13 mph, N100%10000m997hPa86%
24-Feb-2024 03:00Overcast Clouds-1°C13 mph, N100%10000m996hPa84%
24-Feb-2024 06:00Overcast Clouds-2°C11 mph, N98%10000m996hPa85%
24-Feb-2024 09:00Broken Clouds-2°C9 mph, N82%10000m996hPa87%
24-Feb-2024 12:00Overcast Clouds1°C9 mph, N90%8408m995hPa89%
24-Feb-2024 15:00Light Snow1°C7 mph, N100%2934m993hPa94%
24-Feb-2024 18:00Light Snow1°C7 mph, N100%5875m991hPa92%
24-Feb-2024 21:00Light Snow0°C4 mph, N100%1022m990hPa93%
25-Feb-2024 00:00Light Snow-1°C4 mph, N100%382m991hPa97%
25-Feb-2024 03:00Light Snow-3°C4 mph, NW92%9671m991hPa92%
25-Feb-2024 06:00Light Snow-3°C4 mph, NW94%1421m993hPa94%
25-Feb-2024 09:00Light Snow-5°C7 mph, NW87%5462m995hPa91%
25-Feb-2024 12:00Broken Clouds-3°C4 mph, NW82%10000m996hPa90%
25-Feb-2024 15:00Broken Clouds-1°C2 mph, W64%10000m997hPa81%
25-Feb-2024 18:00Broken Clouds-0°C4 mph, SW65%10000m999hPa80%
25-Feb-2024 21:00Broken Clouds-1°C4 mph, S80%10000m1000hPa85%
26-Feb-2024 00:00Broken Clouds-5°C4 mph, NW78%10000m1001hPa86%